Location: *
(45.4590°N, 16.3650°E)
Time: 16:05:51
(UTC+00:00)

SKYMED 2 - Pass Details

Date: 17 January 2020
Orbit: 621 x 623 km, 97.9° (Epoch: 19 February)

Event Time Altitude Azimuth Distance (km) Brightness Sun altitude
Exits shadow 16:49:32 - 16° (NNE) 2,830 6.6 -12.1°
Reaches altitude 10° 16:51:34 10° 20° (NNE) 2,003 5.8 -12.4°
Maximum altitude 16:55:52 60° 101° (E) 714 3.6 -13.2°
Drops below altitude 10° 17:00:08 10° 182° (S) 1,985 6.4 -13.9°
Sets 17:02:21 0° 185° (S) 2,886 7.3 -14.3°
